Year,Month,Day,Hour,Minute,Value (Times are PST for temperature in C)
2016,02,26,00,00,5.50
2016,02,26,00,01,5.50
2016,02,26,00,02,5.50
2016,02,26,00,03,5.40
2016,02,26,00,06,5.40
2016,02,26,00,08,5.40
2016,02,26,00,09,5.40
2016,02,26,00,10,5.40
2016,02,26,00,11,5.40
2016,02,26,00,12,5.40
2016,02,26,00,13,5.40
2016,02,26,00,14,5.30
2016,02,26,00,15,5.40
2016,02,26,00,16,5.30
2016,02,26,00,17,5.30
2016,02,26,00,18,5.30
2016,02,26,00,19,5.30
2016,02,26,00,20,5.30
2016,02,26,00,21,5.30
2016,02,26,00,22,5.30
2016,02,26,00,23,5.30
2016,02,26,00,24,5.30
2016,02,26,00,25,5.30
2016,02,26,00,26,5.30
2016,02,26,00,27,5.30
2016,02,26,00,28,5.30
2016,02,26,00,29,5.30
2016,02,26,00,30,5.30
2016,02,26,00,31,5.30
2016,02,26,00,32,5.30
2016,02,26,00,33,5.30
2016,02,26,00,34,5.30
2016,02,26,00,35,5.30
2016,02,26,00,36,5.30
2016,02,26,00,37,5.30
2016,02,26,00,38,5.30
2016,02,26,00,40,5.30
2016,02,26,00,41,5.30
2016,02,26,00,42,5.30
2016,02,26,00,43,5.30
2016,02,26,00,44,5.40
2016,02,26,00,46,5.40
2016,02,26,00,47,5.40
2016,02,26,00,49,5.40
2016,02,26,00,50,5.40
2016,02,26,00,51,5.40
2016,02,26,00,52,5.40
2016,02,26,00,53,5.40
2016,02,26,00,54,5.40
2016,02,26,00,55,5.40
2016,02,26,00,56,5.40
2016,02,26,00,57,5.40
2016,02,26,00,58,5.40
2016,02,26,01,00,5.40
2016,02,26,01,01,5.40
2016,02,26,01,03,5.40
2016,02,26,01,04,5.40
2016,02,26,01,05,5.30
2016,02,26,01,06,5.30
2016,02,26,01,07,5.30
2016,02,26,01,08,5.30
2016,02,26,01,10,5.30
2016,02,26,01,11,5.30
2016,02,26,01,12,5.30
2016,02,26,01,13,5.20
2016,02,26,01,14,5.20
2016,02,26,01,15,5.20
2016,02,26,01,16,5.20
2016,02,26,01,17,5.20
2016,02,26,01,18,5.10
2016,02,26,01,19,5.10
2016,02,26,01,20,5.10
2016,02,26,01,21,5.10
2016,02,26,01,23,5.00
2016,02,26,01,24,5.00
2016,02,26,01,25,5.00
2016,02,26,01,27,4.90
2016,02,26,01,28,4.90
2016,02,26,01,29,4.90
2016,02,26,01,30,4.90
2016,02,26,01,32,4.90
2016,02,26,01,33,4.90
2016,02,26,01,34,4.90
2016,02,26,01,35,4.90
2016,02,26,01,36,4.90
2016,02,26,01,37,4.90
2016,02,26,01,38,4.90
2016,02,26,01,39,4.90
2016,02,26,01,40,4.90
2016,02,26,01,41,4.90
2016,02,26,01,42,4.90
2016,02,26,01,43,4.90
2016,02,26,01,44,4.90
2016,02,26,01,45,4.90
2016,02,26,01,46,4.90
2016,02,26,01,47,4.90
2016,02,26,01,48,4.90
2016,02,26,01,49,4.90
2016,02,26,01,50,4.90
2016,02,26,01,51,4.90
2016,02,26,01,52,4.80
2016,02,26,01,53,4.80
2016,02,26,01,54,4.80
2016,02,26,01,55,4.90
2016,02,26,01,56,4.80
2016,02,26,01,58,4.80
2016,02,26,01,59,4.80
2016,02,26,02,00,4.80
2016,02,26,02,01,4.80
2016,02,26,02,02,4.80
2016,02,26,02,05,4.80
2016,02,26,02,06,4.80
2016,02,26,02,07,4.80
2016,02,26,02,09,4.80
2016,02,26,02,10,4.80
2016,02,26,02,11,4.80
2016,02,26,02,12,4.70
2016,02,26,02,13,4.70
2016,02,26,02,14,4.70
2016,02,26,02,15,4.70
2016,02,26,02,17,4.70
2016,02,26,02,18,4.70
2016,02,26,02,19,4.70
2016,02,26,02,20,4.70
2016,02,26,02,21,4.70
2016,02,26,02,22,4.70
2016,02,26,02,23,4.70
2016,02,26,02,24,4.70
2016,02,26,02,25,4.70
2016,02,26,02,26,4.70
2016,02,26,02,27,4.70
2016,02,26,02,28,4.70
2016,02,26,02,29,4.70
2016,02,26,02,30,4.70
2016,02,26,02,31,4.70
2016,02,26,02,32,4.70
2016,02,26,02,33,4.70
2016,02,26,02,34,4.70
2016,02,26,02,35,4.80
2016,02,26,02,37,4.80
2016,02,26,02,38,4.80
2016,02,26,02,40,4.80
2016,02,26,02,41,4.80
2016,02,26,02,42,4.80
2016,02,26,02,43,4.80
2016,02,26,02,44,4.80
2016,02,26,02,45,4.80
2016,02,26,02,46,4.80
2016,02,26,02,47,4.80
2016,02,26,02,48,4.80
2016,02,26,02,49,4.80
2016,02,26,02,50,4.80
2016,02,26,02,51,4.80
2016,02,26,02,52,4.80
2016,02,26,02,53,4.80
2016,02,26,02,54,4.80
2016,02,26,02,55,4.80
2016,02,26,02,56,4.90
2016,02,26,02,57,4.90
2016,02,26,02,58,4.90
2016,02,26,02,59,4.90
2016,02,26,03,00,4.90
2016,02,26,03,01,4.90
2016,02,26,03,02,4.90
2016,02,26,03,03,4.90
2016,02,26,03,04,4.90
2016,02,26,03,05,4.90
2016,02,26,03,08,4.90
2016,02,26,03,10,5.00
2016,02,26,03,11,5.00
2016,02,26,03,13,5.00
2016,02,26,03,14,5.00
2016,02,26,03,15,5.00
2016,02,26,03,17,5.00
2016,02,26,03,20,5.00
2016,02,26,03,21,5.00
2016,02,26,03,23,5.00
2016,02,26,03,24,5.00
2016,02,26,03,25,5.00
2016,02,26,03,26,5.00
2016,02,26,03,27,5.00
2016,02,26,03,28,5.10
2016,02,26,03,30,5.00
2016,02,26,03,32,5.10
2016,02,26,03,33,5.10
2016,02,26,03,34,5.10
2016,02,26,03,35,5.10
2016,02,26,03,36,5.00
2016,02,26,03,37,5.00
2016,02,26,03,38,5.00
2016,02,26,03,39,5.00
2016,02,26,03,40,5.00
2016,02,26,03,41,4.90
2016,02,26,03,43,4.90
2016,02,26,03,44,4.90
2016,02,26,03,45,4.90
2016,02,26,03,46,4.90
2016,02,26,03,48,4.90
2016,02,26,03,50,4.80
2016,02,26,03,51,4.80
2016,02,26,03,52,4.80
2016,02,26,03,53,4.80
2016,02,26,03,54,4.80
2016,02,26,03,55,4.80
2016,02,26,03,56,4.80
2016,02,26,03,57,4.80
2016,02,26,03,58,4.80
2016,02,26,03,59,4.80
2016,02,26,04,00,4.80
2016,02,26,04,01,4.80
2016,02,26,04,02,4.80
2016,02,26,04,03,4.80
2016,02,26,04,04,4.80
2016,02,26,04,05,4.80
2016,02,26,04,07,4.80
2016,02,26,04,09,4.80
2016,02,26,04,11,4.80
2016,02,26,04,12,4.80
2016,02,26,04,13,4.80
2016,02,26,04,14,4.80
2016,02,26,04,15,4.80
2016,02,26,04,16,4.80
2016,02,26,04,17,4.80
2016,02,26,04,18,4.80
2016,02,26,04,19,4.80
2016,02,26,04,20,4.80
2016,02,26,04,21,4.80
2016,02,26,04,22,4.80
2016,02,26,04,23,4.80
2016,02,26,04,24,4.80
2016,02,26,04,26,4.80
2016,02,26,04,27,4.80
2016,02,26,04,28,4.80
2016,02,26,04,29,4.80
2016,02,26,04,30,4.80
2016,02,26,04,31,4.80
2016,02,26,04,33,4.90
2016,02,26,04,34,4.90
2016,02,26,04,35,4.90
2016,02,26,04,36,4.90
2016,02,26,04,37,4.90
2016,02,26,04,38,4.90
2016,02,26,04,39,4.90
2016,02,26,04,40,4.90
2016,02,26,04,41,4.90
2016,02,26,04,42,4.90
2016,02,26,04,44,4.90
2016,02,26,04,45,4.90
2016,02,26,04,46,5.00
2016,02,26,04,47,5.00
2016,02,26,04,48,5.00
2016,02,26,04,49,5.00
2016,02,26,04,51,5.00
2016,02,26,04,52,5.00
2016,02,26,04,53,5.00
2016,02,26,04,54,5.00
2016,02,26,04,55,5.00
2016,02,26,04,56,5.00
2016,02,26,04,57,5.00
2016,02,26,04,58,4.90
2016,02,26,04,59,4.90
2016,02,26,05,00,4.90
2016,02,26,05,01,4.90
2016,02,26,05,02,4.90
2016,02,26,05,03,4.90
2016,02,26,05,04,4.90
2016,02,26,05,05,4.90
2016,02,26,05,06,4.90
2016,02,26,05,07,4.90
2016,02,26,05,08,4.90
2016,02,26,05,09,4.90
2016,02,26,05,11,4.90
2016,02,26,05,12,4.90
2016,02,26,05,14,4.90
2016,02,26,05,16,4.90
2016,02,26,05,18,4.80
2016,02,26,05,19,4.80
2016,02,26,05,21,4.80
2016,02,26,05,22,4.80
2016,02,26,05,23,4.80
2016,02,26,05,25,4.80
2016,02,26,05,26,4.80
2016,02,26,05,27,4.70
2016,02,26,05,28,4.70
2016,02,26,05,29,4.70
2016,02,26,05,30,4.70
2016,02,26,05,32,4.70
2016,02,26,05,33,4.80
2016,02,26,05,34,4.80
2016,02,26,05,35,4.80
2016,02,26,05,36,4.70
2016,02,26,05,37,4.80
2016,02,26,05,38,4.80
2016,02,26,05,41,4.80
2016,02,26,05,42,4.80
2016,02,26,05,43,4.80
2016,02,26,05,44,4.80
2016,02,26,05,45,4.80
2016,02,26,05,46,4.80
2016,02,26,05,47,4.80
2016,02,26,05,48,4.80
2016,02,26,05,49,4.80
2016,02,26,05,50,4.80
2016,02,26,05,51,4.80
2016,02,26,05,52,4.80
2016,02,26,05,53,4.70
2016,02,26,05,54,4.70
2016,02,26,05,55,4.70
2016,02,26,05,56,4.70
2016,02,26,05,57,4.70
2016,02,26,05,58,4.70
2016,02,26,05,59,4.70
2016,02,26,06,00,4.70
2016,02,26,06,01,4.70
2016,02,26,06,02,4.70
2016,02,26,06,03,4.60
2016,02,26,06,04,4.60
2016,02,26,06,05,4.60
2016,02,26,06,06,4.60
2016,02,26,06,07,4.60
2016,02,26,06,08,4.60
2016,02,26,06,09,4.60
2016,02,26,06,10,4.60
2016,02,26,06,11,4.60
2016,02,26,06,12,4.60
2016,02,26,06,13,4.60
2016,02,26,06,14,4.60
2016,02,26,06,15,4.60
2016,02,26,06,16,4.60
2016,02,26,06,17,4.60
2016,02,26,06,18,4.60
2016,02,26,06,19,4.60
2016,02,26,06,20,4.60
2016,02,26,06,24,4.60
2016,02,26,06,25,4.60
2016,02,26,06,26,4.60
2016,02,26,06,27,4.60
2016,02,26,06,28,4.60
2016,02,26,06,29,4.60
2016,02,26,06,30,4.60
2016,02,26,06,32,4.60
2016,02,26,06,33,4.60
2016,02,26,06,35,4.60
2016,02,26,06,37,4.60
2016,02,26,06,38,4.60
2016,02,26,06,39,4.60
2016,02,26,06,40,4.60
2016,02,26,06,41,4.60
2016,02,26,06,42,4.60
2016,02,26,06,43,4.60
2016,02,26,06,44,4.60
2016,02,26,06,45,4.60
2016,02,26,06,46,4.60
2016,02,26,06,48,4.70
2016,02,26,06,49,4.70
2016,02,26,06,50,4.70
2016,02,26,06,51,4.70
2016,02,26,06,52,4.70
2016,02,26,06,53,4.70
2016,02,26,06,55,4.70
2016,02,26,06,56,4.70
2016,02,26,06,57,4.70
2016,02,26,06,58,4.70
2016,02,26,06,59,4.70
2016,02,26,07,00,4.70
2016,02,26,07,02,4.70
2016,02,26,07,03,4.70
2016,02,26,07,04,4.70
2016,02,26,07,05,4.70
2016,02,26,07,06,4.70
2016,02,26,07,08,4.70
2016,02,26,07,10,4.70
2016,02,26,07,11,4.80
2016,02,26,07,12,4.80
2016,02,26,07,13,4.80
2016,02,26,07,14,4.70
2016,02,26,07,15,4.80
2016,02,26,07,16,4.80
2016,02,26,07,17,4.80
2016,02,26,07,18,4.80
2016,02,26,07,19,4.80
2016,02,26,07,20,4.80
2016,02,26,07,21,4.80
2016,02,26,07,22,4.80
2016,02,26,07,23,4.80
2016,02,26,07,24,4.80
2016,02,26,07,25,4.80
2016,02,26,07,26,4.80
2016,02,26,07,27,4.80
2016,02,26,07,29,4.80
2016,02,26,07,30,4.80
2016,02,26,07,31,4.80
2016,02,26,07,32,4.80
2016,02,26,07,33,4.80
2016,02,26,07,34,4.80
2016,02,26,07,35,4.80
2016,02,26,07,36,4.80
2016,02,26,07,37,4.80
2016,02,26,07,38,4.80
2016,02,26,07,39,4.80
2016,02,26,07,40,4.80
2016,02,26,07,41,4.80
2016,02,26,07,42,4.80
2016,02,26,07,43,4.80
2016,02,26,07,45,4.80
2016,02,26,07,46,4.80
2016,02,26,07,47,4.80
2016,02,26,07,48,4.80
2016,02,26,07,49,4.80
2016,02,26,07,50,4.80
2016,02,26,07,52,4.80
2016,02,26,07,53,4.80
2016,02,26,07,54,4.80
2016,02,26,07,55,4.80
2016,02,26,07,56,4.80
2016,02,26,07,57,4.80
2016,02,26,07,58,4.80
2016,02,26,07,59,4.80
2016,02,26,08,01,4.80
2016,02,26,08,02,4.90
2016,02,26,08,03,4.90
2016,02,26,08,05,4.90
2016,02,26,08,06,4.90
2016,02,26,08,07,4.90
2016,02,26,08,09,4.90
2016,02,26,08,10,4.90
2016,02,26,08,11,4.90
2016,02,26,08,12,4.90
2016,02,26,08,13,4.90
2016,02,26,08,15,4.90
2016,02,26,08,16,4.90
2016,02,26,08,17,4.90
2016,02,26,08,18,4.90
2016,02,26,08,19,4.90
2016,02,26,08,20,4.90
2016,02,26,08,21,4.90
2016,02,26,08,22,4.90
2016,02,26,08,23,4.90
2016,02,26,08,25,4.90
2016,02,26,08,26,4.90
2016,02,26,08,27,4.90
2016,02,26,08,28,4.90
2016,02,26,08,29,4.90
2016,02,26,08,30,4.90
2016,02,26,08,31,4.80
2016,02,26,08,32,4.90
2016,02,26,08,33,4.90
2016,02,26,08,34,4.90
2016,02,26,08,35,4.90
2016,02,26,08,36,4.90
2016,02,26,08,38,4.90
2016,02,26,08,39,4.90
2016,02,26,08,41,4.90
2016,02,26,08,42,4.90
2016,02,26,08,45,4.90
2016,02,26,08,46,4.90
2016,02,26,08,47,4.90
2016,02,26,08,48,4.90
2016,02,26,08,49,4.80
2016,02,26,08,50,4.80
2016,02,26,08,51,4.80
2016,02,26,08,52,4.80
2016,02,26,08,53,4.80
2016,02,26,08,54,4.80
2016,02,26,08,55,4.80
2016,02,26,08,56,4.80
2016,02,26,08,57,4.80
2016,02,26,08,58,4.80
2016,02,26,08,59,4.80
2016,02,26,09,00,4.80
2016,02,26,09,01,4.80
2016,02,26,09,02,4.80
2016,02,26,09,03,4.80
2016,02,26,09,04,4.80
2016,02,26,09,05,4.80
2016,02,26,09,06,4.80
2016,02,26,09,07,4.80
2016,02,26,09,08,4.80
2016,02,26,09,09,4.80
2016,02,26,09,10,4.80
2016,02,26,09,11,4.80
2016,02,26,09,12,4.80
2016,02,26,09,13,4.80
2016,02,26,09,14,4.80
2016,02,26,09,15,4.80
2016,02,26,09,16,4.90
2016,02,26,09,17,4.90
2016,02,26,09,18,4.90
2016,02,26,09,19,4.90
2016,02,26,09,20,4.90
2016,02,26,09,21,4.90
2016,02,26,09,22,4.90
2016,02,26,09,23,5.00
2016,02,26,09,24,5.00
2016,02,26,09,25,5.00
2016,02,26,09,26,5.00
2016,02,26,09,27,5.10
2016,02,26,09,28,5.10
2016,02,26,09,29,5.10
2016,02,26,09,31,5.10
2016,02,26,09,32,5.10
2016,02,26,09,33,5.10
2016,02,26,09,34,5.20
2016,02,26,09,35,5.20
2016,02,26,09,36,5.20
2016,02,26,09,37,5.20
2016,02,26,09,38,5.20
2016,02,26,09,39,5.20
2016,02,26,09,40,5.20
2016,02,26,09,41,5.20
2016,02,26,09,42,5.20
2016,02,26,09,43,5.20
2016,02,26,09,44,5.30
2016,02,26,09,45,5.30
2016,02,26,09,46,5.30
2016,02,26,09,47,5.30
2016,02,26,09,48,5.30
2016,02,26,09,49,5.30
2016,02,26,09,51,5.30
2016,02,26,09,52,5.30
2016,02,26,09,53,5.30
2016,02,26,09,54,5.30
2016,02,26,09,55,5.30
2016,02,26,09,56,5.30
2016,02,26,09,57,5.30
2016,02,26,09,58,5.30
2016,02,26,09,59,5.30
2016,02,26,10,00,5.30
2016,02,26,10,01,5.40
2016,02,26,10,02,5.40
2016,02,26,10,03,5.40
2016,02,26,10,04,5.40
2016,02,26,10,05,5.50
2016,02,26,10,07,5.60
2016,02,26,10,08,5.60
2016,02,26,10,09,5.60
2016,02,26,10,10,5.60
2016,02,26,10,11,5.60
2016,02,26,10,12,5.70
2016,02,26,10,13,5.70
2016,02,26,10,14,5.80
2016,02,26,10,15,5.80
2016,02,26,10,16,5.90
2016,02,26,10,17,5.90
2016,02,26,10,18,5.90
2016,02,26,10,19,6.00
2016,02,26,10,20,6.00
2016,02,26,10,21,6.10
2016,02,26,10,22,6.10
2016,02,26,10,23,6.10
2016,02,26,10,24,6.10
2016,02,26,10,25,6.10
2016,02,26,10,26,6.00
2016,02,26,10,29,5.90
2016,02,26,10,30,5.90
2016,02,26,10,31,5.80
2016,02,26,10,32,5.80
2016,02,26,10,33,5.80
2016,02,26,10,34,5.80
2016,02,26,10,35,5.80
2016,02,26,10,36,5.80
2016,02,26,10,37,5.80
2016,02,26,10,38,5.80
2016,02,26,10,39,5.80
2016,02,26,10,40,5.90
2016,02,26,10,42,5.90
2016,02,26,10,43,5.90
2016,02,26,10,45,6.00
2016,02,26,10,46,6.10
2016,02,26,10,47,6.10
2016,02,26,10,48,6.10
2016,02,26,10,49,6.10
2016,02,26,10,50,6.10
2016,02,26,10,51,6.10
2016,02,26,10,52,6.10
2016,02,26,10,53,6.10
2016,02,26,10,54,6.10
2016,02,26,10,55,6.10
2016,02,26,10,56,6.20
2016,02,26,10,57,6.20
2016,02,26,10,58,6.20
2016,02,26,10,59,6.20
2016,02,26,11,00,6.30
2016,02,26,11,01,6.30
2016,02,26,11,03,6.30
2016,02,26,11,04,6.30
2016,02,26,11,05,6.30
2016,02,26,11,06,6.30
2016,02,26,11,07,6.30
2016,02,26,11,08,6.30
2016,02,26,11,09,6.30
2016,02,26,11,10,6.30
2016,02,26,11,11,6.30
2016,02,26,11,12,6.30
2016,02,26,11,13,6.40
2016,02,26,11,14,6.40
2016,02,26,11,15,6.40
2016,02,26,11,16,6.50
2016,02,26,11,17,6.50
2016,02,26,11,18,6.50
2016,02,26,11,19,6.50
2016,02,26,11,20,6.50
2016,02,26,11,21,6.60
2016,02,26,11,22,6.60
2016,02,26,11,23,6.60
2016,02,26,11,24,6.60
2016,02,26,11,26,6.70
2016,02,26,11,27,6.70
2016,02,26,11,28,6.70
2016,02,26,11,29,6.70
2016,02,26,11,30,6.70
2016,02,26,11,31,6.70
2016,02,26,11,32,6.70
2016,02,26,11,33,6.80
2016,02,26,11,34,6.80
2016,02,26,11,35,6.80
2016,02,26,11,36,6.90
2016,02,26,11,37,6.90
2016,02,26,11,38,6.90
2016,02,26,11,39,7.00
2016,02,26,11,40,7.10
2016,02,26,11,41,7.10
2016,02,26,11,42,7.10
2016,02,26,11,43,7.10
2016,02,26,11,44,7.10
2016,02,26,11,45,7.10
2016,02,26,11,46,7.20
2016,02,26,11,47,7.20
2016,02,26,11,48,7.20
2016,02,26,11,49,7.20
2016,02,26,11,50,7.30
2016,02,26,11,51,7.30
2016,02,26,11,52,7.30
2016,02,26,11,53,7.40
2016,02,26,11,54,7.40
2016,02,26,11,55,7.40
2016,02,26,11,56,7.50
2016,02,26,11,57,7.50
2016,02,26,11,58,7.60
2016,02,26,11,59,7.60
2016,02,26,12,00,7.60
2016,02,26,12,01,7.60
2016,02,26,12,02,7.60
2016,02,26,12,03,7.60
2016,02,26,12,04,7.60
2016,02,26,12,05,7.60
2016,02,26,12,06,7.70
2016,02,26,12,07,7.70
2016,02,26,12,08,7.70
2016,02,26,12,09,7.70
2016,02,26,12,10,7.70
2016,02,26,12,11,7.70
2016,02,26,12,12,7.70
2016,02,26,12,13,7.70
2016,02,26,12,14,7.70
2016,02,26,12,15,7.60
2016,02,26,12,16,7.60
2016,02,26,12,17,7.60
2016,02,26,12,18,7.60
2016,02,26,12,19,7.60
2016,02,26,12,20,7.60
2016,02,26,12,21,7.60
2016,02,26,12,22,7.60
2016,02,26,12,23,7.60
2016,02,26,12,24,7.60
2016,02,26,12,25,7.60
2016,02,26,12,26,7.60
2016,02,26,12,27,7.60
2016,02,26,12,28,7.60
2016,02,26,12,29,7.60
2016,02,26,12,30,7.60
2016,02,26,12,31,7.60
2016,02,26,12,32,7.60
2016,02,26,12,33,7.60
2016,02,26,12,34,7.60
2016,02,26,12,35,7.70
2016,02,26,12,36,7.70
2016,02,26,12,37,7.70
2016,02,26,12,38,7.70
2016,02,26,12,40,7.70
2016,02,26,12,41,7.70
2016,02,26,12,42,7.70
2016,02,26,12,43,7.80
2016,02,26,12,44,7.80
2016,02,26,12,45,7.80
2016,02,26,12,46,7.90
2016,02,26,12,47,7.90
2016,02,26,12,48,7.90
2016,02,26,12,49,8.00
2016,02,26,12,50,8.10
2016,02,26,12,51,8.10
2016,02,26,12,52,8.10
2016,02,26,12,54,8.10
2016,02,26,12,55,8.20
2016,02,26,12,56,8.20
2016,02,26,12,57,8.20
2016,02,26,12,58,8.20
2016,02,26,12,59,8.20
2016,02,26,13,00,8.30
2016,02,26,13,01,8.30
2016,02,26,13,02,8.30
2016,02,26,13,03,8.30
2016,02,26,13,04,8.30
2016,02,26,13,05,8.30
2016,02,26,13,06,8.30
2016,02,26,13,07,8.30
2016,02,26,13,08,8.40
2016,02,26,13,09,8.40
2016,02,26,13,10,8.40
2016,02,26,13,11,8.40
2016,02,26,13,12,8.50
2016,02,26,13,13,8.50
2016,02,26,13,14,8.60
2016,02,26,13,15,8.60
2016,02,26,13,16,8.60
2016,02,26,13,17,8.60
2016,02,26,13,18,8.60
2016,02,26,13,19,8.70
2016,02,26,13,20,8.70
2016,02,26,13,22,8.70
2016,02,26,13,23,8.70
2016,02,26,13,24,8.70
2016,02,26,13,26,8.70
2016,02,26,13,27,8.70
2016,02,26,13,28,8.70
2016,02,26,13,29,8.70
2016,02,26,13,30,8.70
2016,02,26,13,31,8.70
2016,02,26,13,32,8.70
2016,02,26,13,33,8.70
2016,02,26,13,34,8.70
2016,02,26,13,35,8.70
2016,02,26,13,36,8.70
2016,02,26,13,37,8.80
2016,02,26,13,38,8.80
2016,02,26,13,39,8.80
2016,02,26,13,40,8.80
2016,02,26,13,41,8.80
2016,02,26,13,42,8.80
2016,02,26,13,43,8.80
2016,02,26,13,44,8.80
2016,02,26,13,45,8.80
2016,02,26,13,46,8.80
2016,02,26,13,48,8.80
2016,02,26,13,49,8.80
2016,02,26,13,50,8.80
2016,02,26,13,51,8.80
2016,02,26,13,52,8.80
2016,02,26,13,53,8.80
2016,02,26,13,54,8.70
2016,02,26,13,55,8.70
2016,02,26,13,56,8.70
2016,02,26,13,57,8.70
2016,02,26,13,58,8.70
2016,02,26,13,59,8.70
2016,02,26,14,00,8.70
2016,02,26,14,01,8.60
2016,02,26,14,02,8.60
2016,02,26,14,03,8.60
2016,02,26,14,04,8.60
2016,02,26,14,05,8.60
2016,02,26,14,06,8.60
2016,02,26,14,07,8.60
2016,02,26,14,08,8.60
2016,02,26,14,09,8.60
2016,02,26,14,10,8.60
2016,02,26,14,11,8.60
2016,02,26,14,12,8.60
2016,02,26,14,13,8.60
2016,02,26,14,14,8.60
2016,02,26,14,15,8.60
2016,02,26,14,16,8.60
2016,02,26,14,17,8.50
2016,02,26,14,18,8.60
2016,02,26,14,19,8.50
2016,02,26,14,20,8.60
2016,02,26,14,21,8.60
2016,02,26,14,22,8.60
2016,02,26,14,23,8.60
2016,02,26,14,24,8.60
2016,02,26,14,25,8.60
2016,02,26,14,26,8.60
2016,02,26,14,27,8.60
2016,02,26,14,28,8.60
2016,02,26,14,29,8.60
2016,02,26,14,30,8.60
2016,02,26,14,32,8.60
2016,02,26,14,33,8.60
2016,02,26,14,34,8.60
2016,02,26,14,35,8.60
2016,02,26,14,36,8.60
2016,02,26,14,37,8.60
2016,02,26,14,38,8.60
2016,02,26,14,39,8.60
2016,02,26,14,40,8.60
2016,02,26,14,41,8.60
2016,02,26,14,42,8.60
2016,02,26,14,43,8.60
2016,02,26,14,46,8.60
2016,02,26,14,47,8.70
2016,02,26,14,48,8.70
2016,02,26,14,49,8.70
2016,02,26,14,50,8.70
2016,02,26,14,51,8.70
2016,02,26,14,52,8.70
2016,02,26,14,53,8.70
2016,02,26,14,54,8.70
2016,02,26,14,55,8.70
2016,02,26,14,56,8.70
2016,02,26,14,57,8.80
2016,02,26,14,58,8.80
2016,02,26,14,59,8.80
2016,02,26,15,00,8.80
2016,02,26,15,01,8.80
2016,02,26,15,02,8.80
2016,02,26,15,03,8.80
2016,02,26,15,04,8.80
2016,02,26,15,07,8.80
2016,02,26,15,08,8.80
2016,02,26,15,09,8.80
2016,02,26,15,10,8.80
2016,02,26,15,11,8.80
2016,02,26,15,12,8.80
2016,02,26,15,13,8.80
2016,02,26,15,14,8.80
2016,02,26,15,15,8.80
2016,02,26,15,16,8.90
2016,02,26,15,17,8.90
2016,02,26,15,18,8.90
2016,02,26,15,19,8.90
2016,02,26,15,20,8.80
2016,02,26,15,21,8.80
2016,02,26,15,22,8.80
2016,02,26,15,23,8.80
2016,02,26,15,24,8.80
2016,02,26,15,25,8.80
2016,02,26,15,26,8.80
2016,02,26,15,27,8.80
2016,02,26,15,28,8.80
2016,02,26,15,29,8.80
2016,02,26,15,30,8.80
2016,02,26,15,31,8.80
2016,02,26,15,32,8.80
2016,02,26,15,33,8.80
2016,02,26,15,34,8.80
2016,02,26,15,35,8.70
2016,02,26,15,36,8.70
2016,02,26,15,37,8.70
2016,02,26,15,38,8.70
2016,02,26,15,39,8.70
2016,02,26,15,40,8.70
2016,02,26,15,41,8.70
2016,02,26,15,42,8.70
2016,02,26,15,43,8.70
2016,02,26,15,44,8.70
2016,02,26,15,45,8.70
2016,02,26,15,46,8.70
2016,02,26,15,47,8.70
2016,02,26,15,48,8.70
2016,02,26,15,49,8.70
2016,02,26,15,50,8.70
2016,02,26,15,51,8.70
2016,02,26,15,52,8.70
2016,02,26,15,53,8.70
2016,02,26,15,54,8.70
2016,02,26,15,56,8.70
2016,02,26,15,57,8.70
2016,02,26,15,58,8.60
2016,02,26,15,59,8.70
2016,02,26,16,00,8.70
2016,02,26,16,01,8.70
2016,02,26,16,02,8.70
2016,02,26,16,03,8.70
2016,02,26,16,04,8.70
2016,02,26,16,05,8.70
2016,02,26,16,06,8.70
2016,02,26,16,07,8.70
2016,02,26,16,08,8.70
2016,02,26,16,09,8.70
2016,02,26,16,10,8.70
2016,02,26,16,11,8.70
2016,02,26,16,12,8.70
2016,02,26,16,13,8.70
2016,02,26,16,14,8.70
2016,02,26,16,17,8.70
2016,02,26,16,18,8.70
2016,02,26,16,19,8.70
2016,02,26,16,20,8.70
2016,02,26,16,21,8.70
2016,02,26,16,22,8.70
2016,02,26,16,23,8.70
2016,02,26,16,24,8.70
2016,02,26,16,25,8.70
2016,02,26,16,26,8.70
2016,02,26,16,27,8.70
2016,02,26,16,28,8.70
2016,02,26,16,29,8.70
2016,02,26,16,31,8.70
2016,02,26,16,32,8.70
2016,02,26,16,33,8.70
2016,02,26,16,34,8.70
2016,02,26,16,35,8.70
2016,02,26,16,36,8.60
2016,02,26,16,37,8.60
2016,02,26,16,38,8.60
2016,02,26,16,39,8.60
2016,02,26,16,40,8.60
2016,02,26,16,41,8.60
2016,02,26,16,43,8.60
2016,02,26,16,44,8.60
2016,02,26,16,45,8.60
2016,02,26,16,46,8.60
2016,02,26,16,47,8.60
2016,02,26,16,48,8.50
2016,02,26,16,49,8.50
2016,02,26,16,50,8.50
2016,02,26,16,53,8.40
2016,02,26,16,54,8.40
2016,02,26,16,55,8.40
2016,02,26,16,56,8.40
2016,02,26,16,57,8.40
2016,02,26,16,58,8.40
2016,02,26,16,59,8.40
2016,02,26,17,00,8.40
2016,02,26,17,01,8.40
2016,02,26,17,02,8.40
2016,02,26,17,03,8.40
2016,02,26,17,04,8.40
2016,02,26,17,05,8.40
2016,02,26,17,06,8.40
2016,02,26,17,07,8.40
2016,02,26,17,08,8.40
2016,02,26,17,09,8.40
2016,02,26,17,10,8.40
2016,02,26,17,11,8.40
2016,02,26,17,12,8.40
2016,02,26,17,13,8.40
2016,02,26,17,14,8.40
2016,02,26,17,15,8.30
2016,02,26,17,16,8.30
2016,02,26,17,17,8.30
2016,02,26,17,18,8.30
2016,02,26,17,19,8.30
2016,02,26,17,20,8.30
2016,02,26,17,21,8.30
2016,02,26,17,22,8.30
2016,02,26,17,23,8.30
2016,02,26,17,24,8.30
2016,02,26,17,25,8.30
2016,02,26,17,26,8.30
2016,02,26,17,27,8.30
2016,02,26,17,28,8.30
2016,02,26,17,29,8.30
2016,02,26,17,30,8.30
2016,02,26,17,31,8.30
2016,02,26,17,32,8.30
2016,02,26,17,33,8.30
2016,02,26,17,34,8.30
2016,02,26,17,35,8.30
2016,02,26,17,36,8.30
2016,02,26,17,37,8.30
2016,02,26,17,38,8.30
2016,02,26,17,39,8.30
2016,02,26,17,41,8.30
2016,02,26,17,42,8.30
2016,02,26,17,43,8.30
2016,02,26,17,44,8.30
2016,02,26,17,45,8.30
2016,02,26,17,46,8.30
2016,02,26,17,47,8.30
2016,02,26,17,48,8.30
2016,02,26,17,49,8.30
2016,02,26,17,50,8.30
2016,02,26,17,51,8.30
2016,02,26,17,52,8.30
2016,02,26,17,53,8.20
2016,02,26,17,54,8.20
2016,02,26,17,55,8.20
2016,02,26,17,56,8.20
2016,02,26,17,57,8.20
2016,02,26,17,58,8.20
2016,02,26,17,59,8.20
2016,02,26,18,00,8.20
2016,02,26,18,01,8.20
2016,02,26,18,03,8.20
2016,02,26,18,04,8.20
2016,02,26,18,05,8.20
2016,02,26,18,06,8.20
2016,02,26,18,07,8.20
2016,02,26,18,08,8.20
2016,02,26,18,09,8.20
2016,02,26,18,10,8.20
2016,02,26,18,11,8.20
2016,02,26,18,12,8.20
2016,02,26,18,13,8.20
2016,02,26,18,14,8.20
2016,02,26,18,15,8.20
2016,02,26,18,16,8.20
2016,02,26,18,17,8.20
2016,02,26,18,18,8.20
2016,02,26,18,19,8.10
2016,02,26,18,20,8.10
2016,02,26,18,21,8.10
2016,02,26,18,22,8.10
2016,02,26,18,23,8.10
2016,02,26,18,24,8.10
2016,02,26,18,25,8.10
2016,02,26,18,26,8.10
2016,02,26,18,27,8.10
2016,02,26,18,28,8.10
2016,02,26,18,29,8.10
2016,02,26,18,30,8.10
2016,02,26,18,31,8.10
2016,02,26,18,32,8.10
2016,02,26,18,33,8.10
2016,02,26,18,34,8.10
2016,02,26,18,35,8.10
2016,02,26,18,36,8.10
2016,02,26,18,39,8.10
2016,02,26,18,40,8.10
2016,02,26,18,41,8.10
2016,02,26,18,42,8.10
2016,02,26,18,43,8.10
2016,02,26,18,44,8.10
2016,02,26,18,45,8.10
2016,02,26,18,47,8.10
2016,02,26,18,48,8.10
2016,02,26,18,49,8.00
2016,02,26,18,50,8.00
2016,02,26,18,51,8.00
2016,02,26,18,52,8.00
2016,02,26,18,53,8.00
2016,02,26,18,54,8.00
2016,02,26,18,55,7.90
2016,02,26,18,56,7.90
2016,02,26,18,57,8.00
2016,02,26,18,58,7.90
2016,02,26,18,59,8.00
2016,02,26,19,00,8.00
2016,02,26,19,01,8.00
2016,02,26,19,02,8.00
2016,02,26,19,03,8.00
2016,02,26,19,04,7.90
2016,02,26,19,05,7.90
2016,02,26,19,06,8.00
2016,02,26,19,07,7.90
2016,02,26,19,08,7.90
2016,02,26,19,09,7.90
2016,02,26,19,10,7.90
2016,02,26,19,11,7.90
2016,02,26,19,13,8.00
2016,02,26,19,14,8.00
2016,02,26,19,15,8.00
2016,02,26,19,16,8.00
2016,02,26,19,17,7.90
2016,02,26,19,18,8.00
2016,02,26,19,19,8.00
2016,02,26,19,20,8.00
2016,02,26,19,21,8.00
2016,02,26,19,22,8.00
2016,02,26,19,23,8.00
2016,02,26,19,24,8.00
2016,02,26,19,25,8.00
2016,02,26,19,26,8.00
2016,02,26,19,27,8.00
2016,02,26,19,28,8.00
2016,02,26,19,29,8.00
2016,02,26,19,30,8.00
2016,02,26,19,31,8.00
2016,02,26,19,32,8.00
2016,02,26,19,33,8.00
2016,02,26,19,34,8.00
2016,02,26,19,35,8.00
2016,02,26,19,36,8.00
2016,02,26,19,39,8.00
2016,02,26,19,40,8.00
2016,02,26,19,41,8.00
2016,02,26,19,42,8.00
2016,02,26,19,43,8.00
2016,02,26,19,44,8.00
2016,02,26,19,46,8.00
2016,02,26,19,47,8.00
2016,02,26,19,48,8.00
2016,02,26,19,49,8.00
2016,02,26,19,50,8.00
2016,02,26,19,51,7.90
2016,02,26,19,52,7.90